Location: Unspecified
(0.0000°N, 0.0000°E)
Time: 08:15:35
(UTC+00:00)

Transit 4A - Pass Details

Date: 07 October 2023
Orbit: 864 x 979 km, 66.8° (Epoch: 05 December)

Event Time Altitude Azimuth Distance (km) Brightness Sun altitude
Rises 20:40:08 0° 319° (NW) 3,550 11.3 -42.8°
Reaches altitude 10° 20:43:00 10° 309° (NW) 2,590 10.6 -43.5°
Enters shadow 20:43:39 13° 305° (NW) 2,393 10.4 -43.7°
Maximum altitude 20:48:04 29° 251° (WSW) 1,595 - -44.8°
Drops below altitude 10° 20:53:02 10° 192° (SSW) 2,537 - -46.0°
Sets 20:55:50 0° 181° (S) 3,465 - -46.7°
